TimeCST,TemperatureF,Dew PointF,Humidity,Sea Level PressureIn,VisibilityMPH,Wind Direction,Wind SpeedMPH,Gust SpeedMPH,PrecipitationIn,Events,Conditions,WindDirDegrees,DateUTC
12:51 AM,44.1,26.1,49,29.67,10.0,NNW,5.8,-,N/A,,Clear,340,2012-12-25 06:51:00
1:51 AM,44.1,27.0,51,29.64,10.0,Calm,Calm,-,N/A,,Clear,0,2012-12-25 07:51:00
2:51 AM,44.1,26.1,49,29.64,10.0,NW,4.6,-,N/A,,Clear,310,2012-12-25 08:51:00
3:51 AM,44.1,27.0,51,29.62,10.0,South,4.6,-,N/A,,Mostly Cloudy,180,2012-12-25 09:51:00
4:51 AM,44.1,35.1,71,29.61,10.0,Calm,Calm,-,0.02,Rain,Light Rain,0,2012-12-25 10:51:00
5:51 AM,46.9,37.9,71,29.63,10.0,WSW,3.5,-,0.00,,Partly Cloudy,240,2012-12-25 11:51:00
6:51 AM,50.0,36.0,59,29.64,10.0,WSW,12.7,-,N/A,,Partly Cloudy,250,2012-12-25 12:51:00
7:51 AM,53.1,33.1,47,29.67,10.0,WNW,24.2,36.8,N/A,,Clear,290,2012-12-25 13:51:00
8:51 AM,53.1,30.9,43,29.75,10.0,WNW,20.7,28.8,N/A,,Clear,290,2012-12-25 14:51:00
9:51 AM,42.1,28.0,58,29.89,10.0,North,19.6,-,N/A,,Clear,350,2012-12-25 15:51:00
10:47 AM,39.2,26.6,61,29.97,8.0,North,20.7,-,N/A,,Mostly Cloudy,350,2012-12-25 16:47:00
10:51 AM,39.9,26.1,58,29.98,8.0,North,17.3,-,N/A,,Mostly Cloudy,350,2012-12-25 16:51:00
11:51 AM,36.0,25.0,64,30.03,8.0,NNW,23.0,-,N/A,,Overcast,340,2012-12-25 17:51:00
12:51 PM,37.9,23.0,55,30.04,10.0,NNW,20.7,-,N/A,,Overcast,330,2012-12-25 18:51:00
1:51 PM,39.9,21.0,47,30.05,10.0,NW,23.0,31.1,N/A,,Mostly Cloudy,320,2012-12-25 19:51:00
2:51 PM,39.9,21.0,47,30.06,10.0,NW,18.4,31.1,N/A,,Partly Cloudy,310,2012-12-25 20:51:00
3:51 PM,39.0,19.0,45,30.08,10.0,NNW,26.5,32.2,N/A,,Clear,330,2012-12-25 21:51:00
4:51 PM,37.0,18.0,46,30.09,10.0,NNW,17.3,-,N/A,,Clear,330,2012-12-25 22:51:00
5:51 PM,34.0,16.0,48,30.12,10.0,NNW,16.1,26.5,N/A,,Clear,330,2012-12-25 23:51:00
6:51 PM,33.1,15.1,48,30.16,10.0,NW,15.0,-,N/A,,Clear,320,2012-12-26 00:51:00
7:51 PM,32.0,15.1,50,30.18,10.0,NW,12.7,-,N/A,,Clear,320,2012-12-26 01:51:00
8:51 PM,30.9,14.0,50,30.19,10.0,NW,11.5,-,N/A,,Scattered Clouds,310,2012-12-26 02:51:00
9:51 PM,32.0,15.1,50,30.23,10.0,NNW,15.0,-,N/A,,Overcast,340,2012-12-26 03:51:00
10:51 PM,30.9,15.1,52,30.26,10.0,NNW,17.3,-,N/A,,Overcast,340,2012-12-26 04:51:00
11:22 PM,30.2,15.8,55,30.22,10.0,NNW,13.8,-,N/A,,Overcast,340,2012-12-26 05:22:00
11:51 PM,30.9,16.0,54,30.26,10.0,NNW,17.3,-,N/A,,Overcast,340,2012-12-26 05:51:00